| time (UTC) | temp C | wind direction | speed KPH | gust KPH | rain 1hr cm | rain 24hr cm | rain mn cm | humidity % | barometer mb |
| 20260503181511 | 23 | 34 | 8.0 | 16.1 | 0.00 | 0.00 | 0.00 | 51 | 1011.4 |
| 20260503180023 | 22 | 15 | 6.4 | 14.5 | 0.00 | 0.00 | 0.00 | 52 | 1011.4 |
| 20260503174524 | 22 | 39 | 11.3 | 14.5 | 0.00 | 0.00 | 0.00 | 55 | 1011.5 |
| 20260503173028 | 22 | 329 | 6.4 | 19.3 | 0.00 | 0.00 | 0.00 | 56 | 1011.5 |
| 20260503171525 | 21 | 351 | 8.0 | 17.7 | 0.00 | 0.00 | 0.00 | 57 | 1011.5 |
| 20260503150109 | 16 | 110 | 0.0 | 0.0 | 0.00 | 0.00 | 0.00 | 45 | 1012.0 |
| 20260503100119 | 12 | 220 | 0.0 | 0.0 | 0.00 | 0.00 | 0.00 | 1 | 1011.9 |
| 20260503081536 | 12 | 131 | 0.0 | 0.0 | 0.00 | 0.00 | 0.00 | 1 | 1012.4 |
| 20260503071544 | 13 | 173 | 0.0 | 0.0 | 0.00 | 0.00 | 0.00 | 19 | 1012.7 |
| 20260503060103 | 15 | 58 | 0.0 | 0.0 | 0.00 | 0.00 | 0.00 | 56 | 1012.7 |
| 20260503054606 | 16 | 58 | 0.0 | 0.0 | 0.00 | 0.00 | 0.00 | 61 | 1012.7 |
| 20260503053004 | 16 | 64 | 0.0 | 0.0 | 0.00 | 0.00 | 0.00 | 63 | 1012.7 |
| 20260503051515 | 16 | 64 | 0.0 | 0.0 | 0.00 | 0.00 | 0.00 | 66 | 1012.7 |
| 20260503050012 | 16 | 63 | 0.0 | 0.0 | 0.00 | 0.00 | 0.00 | 67 | 1012.7 |
| 20260503044527 | 17 | 63 | 0.0 | 0.0 | 0.00 | 0.00 | 0.00 | 67 | 1012.6 |
| 20260503043028 | 17 | 63 | 0.0 | 0.0 | 0.00 | 0.00 | 0.00 | 67 | 1012.5 |
| 20260503041534 | 17 | 64 | 0.0 | 0.0 | 0.00 | 0.00 | 0.00 | 67 | 1012.4 |
| 20260503040035 | 17 | 63 | 0.0 | 1.6 | 0.00 | 0.00 | 0.00 | 67 | 1012.3 |
| 20260503034539 | 17 | 71 | 0.0 | 1.6 | 0.00 | 0.00 | 0.00 | 67 | 1012.1 |
| 20260503033043 | 17 | 61 | 0.0 | 3.2 | 0.00 | 0.00 | 0.00 | 67 | 1011.7 |
| 20260503031547 | 17 | 38 | 0.0 | 4.8 | 0.00 | 0.00 | 0.00 | 66 | 1011.4 |
| 20260503030121 | 17 | 94 | 0.0 | 6.4 | 0.00 | 0.00 | 0.00 | 67 | 1011.3 |
| 20260503024604 | 17 | 288 | 1.6 | 6.4 | 0.00 | 0.00 | 0.00 | 67 | 1011.7 |
| 20260503023059 | 18 | 274 | 0.0 | 1.6 | 0.00 | 0.00 | 0.00 | 66 | 1012.1 |
| 20260503021607 | 18 | 274 | 0.0 | 1.6 | 0.00 | 0.00 | 0.00 | 65 | 1012.5 |
| 20260503020104 | 18 | 100 | 3.2 | 12.9 | 0.00 | 0.00 | 0.00 | 67 | 1013.0 |
| 20260503014501 | 18 | 86 | 4.8 | 12.9 | 0.00 | 0.00 | 0.00 | 66 | 1012.7 |
| 20260503013005 | 19 | 115 | 1.6 | 8.0 | 0.00 | 0.00 | 0.00 | 65 | 1012.2 |
| 20260503011508 | 20 | 40 | 1.6 | 9.7 | 0.00 | 0.00 | 0.00 | 64 | 1012.1 |
| 20260503010018 | 20 | 56 | 0.0 | 9.7 | 0.00 | 0.00 | 0.00 | 63 | 1012.1 |
| 20260503004519 | 20 | 64 | 0.0 | 6.4 | 0.00 | 0.00 | 0.00 | 62 | 1012.0 |
| 20260503003021 | 21 | 77 | 0.0 | 8.0 | 0.00 | 0.00 | 0.00 | 59 | 1012.0 |
| 20260503001525 | 21 | 354 | 0.0 | 9.7 | 0.00 | 0.00 | 0.00 | 60 | 1011.8 |
| 20260503000033 | 20 | 323 | 1.6 | 11.3 | 0.00 | 0.00 | 0.00 | 62 | 1011.8 |
| 20260502234541 | 20 | 52 | 3.2 | 12.9 | 0.00 | 0.00 | 0.00 | 62 | 1011.8 |
| 20260502233045 | 19 | 71 | 3.2 | 12.9 | 0.00 | 0.00 | 0.00 | 63 | 1012.1 |
| 20260502231550 | 19 | 22 | 1.6 | 8.0 | 0.00 | 0.00 | 0.00 | 63 | 1012.3 |
| 20260502230054 | 19 | 16 | 0.0 | 12.9 | 0.00 | 0.00 | 0.00 | 62 | 1012.5 |
| 20260502224557 | 18 | 319 | 0.0 | 11.3 | 0.00 | 0.00 | 0.00 | 64 | 1012.7 |
| 20260502223102 | 18 | 79 | 4.8 | 14.5 | 0.00 | 0.00 | 0.00 | 63 | 1013.2 |
| 20260502221501 | 18 | 352 | 1.6 | 11.3 | 0.00 | 0.00 | 0.00 | 64 | 1013.4 |
| 20260502220005 | 17 | 30 | 3.2 | 14.5 | 0.00 | 0.00 | 0.00 | 65 | 1013.4 |
| 20260502214506 | 17 | 70 | 6.4 | 12.9 | 0.00 | 0.00 | 0.00 | 65 | 1013.6 |
| 20260502213032 | 17 | 227 | 0.0 | 4.8 | 0.00 | 0.00 | 0.00 | 65 | 1013.7 |
| 20260502211513 | 17 | 10 | 4.8 | 11.3 | 0.00 | 0.00 | 0.00 | 65 | 1013.9 |
| 20260502210017 | 17 | 47 | 0.0 | 9.7 | 0.00 | 0.00 | 0.00 | 65 | 1014.2 |
| 20260502204522 | 16 | 46 | 3.2 | 11.3 | 0.00 | 0.00 | 0.00 | 65 | 1014.3 |
| 20260502203025 | 15 | 347 | 8.0 | 16.1 | 0.00 | 0.00 | 0.00 | 66 | 1014.5 |
| 20260502201532 | 15 | 27 | 0.0 | 4.8 | 0.00 | 0.00 | 0.00 | 66 | 1014.7 |
| 20260502200033 | 15 | 58 | 3.2 | 11.3 | 0.00 | 0.00 | 0.00 | 65 | 1015.0 |
| 20260502194538 | 15 | 224 | 0.0 | 3.2 | 0.00 | 0.00 | 0.00 | 65 | 1015.2 |
| 20260502193041 | 15 | 352 | 3.2 | 9.7 | 0.00 | 0.00 | 0.00 | 66 | 1015.5 |
| 20260502191550 | 14 | 49 | 0.0 | 6.4 | 0.00 | 0.00 | 0.00 | 66 | 1015.7 |
| 20260502190049 | 14 | 84 | 1.6 | 6.4 | 0.00 | 0.00 | 0.00 | 65 | 1015.8 |
| 20260502184551 | 14 | 68 | 4.8 | 9.7 | 0.00 | 0.00 | 0.00 | 64 | 1015.8 |
| 20260502183054 | 12 | 219 | 0.0 | 1.6 | 0.00 | 0.00 | 0.00 | 62 | 1015.9 |